Time,TemperatureF,DewpointF,PressureIn,WindDirection,WindDirectionDegrees,WindSpeedMPH,WindSpeedGustMPH,Humidity,HourlyPrecipIn,Conditions,Clouds,dailyrainin,SoftwareType,DateUTC
2013-11-02 00:00:00,63.7,60.8,29.72,WNW,293,0.0,0.0,90,0.00,,,0.00,WUHU216HW,2013-11-02 04:00:00,
2013-11-02 00:01:00,63.7,60.8,29.72,WNW,293,0.0,0.0,90,0.00,,,0.00,WUHU216HW,2013-11-02 04:01:00,
2013-11-02 00:06:00,63.7,60.8,29.72,WNW,293,0.0,0.0,90,0.00,,,0.00,WUHU216HW,2013-11-02 04:06:00,
2013-11-02 00:30:00,63.0,60.1,29.72,WSW,248,0.0,0.0,90,0.00,,,0.00,WUHU216HW,2013-11-02 04:30:00,
2013-11-02 00:35:00,63.0,60.1,29.72,WSW,248,0.0,0.0,90,0.00,,,0.00,WUHU216HW,2013-11-02 04:35:00,
2013-11-02 01:00:00,62.3,59.0,29.72,WSW,248,0.4,0.4,89,0.00,,,0.00,WUHU216HW,2013-11-02 05:00:00,
2013-11-02 01:05:00,62.3,59.0,29.72,WSW,248,0.4,0.4,89,0.00,,,0.00,WUHU216HW,2013-11-02 05:05:00,
2013-11-02 01:30:00,61.9,59.0,29.72,SSW,203,0.0,0.0,90,0.00,,,0.00,WUHU216HW,2013-11-02 05:30:00,
2013-11-02 01:35:00,61.9,59.0,29.72,SSW,203,0.0,0.0,90,0.00,,,0.00,WUHU216HW,2013-11-02 05:35:00,
2013-11-02 02:00:00,61.6,58.7,29.72,NNW,338,0.2,0.2,90,0.00,,,0.00,WUHU216HW,2013-11-02 06:00:00,
2013-11-02 02:05:00,61.6,58.7,29.72,NNW,338,0.2,0.2,90,0.00,,,0.00,WUHU216HW,2013-11-02 06:05:00,
2013-11-02 02:30:00,61.2,58.3,29.71,WSW,248,0.0,0.0,90,0.00,,,0.00,WUHU216HW,2013-11-02 06:30:00,
2013-11-02 02:35:00,61.2,58.3,29.71,WSW,248,0.0,0.0,90,0.00,,,0.00,WUHU216HW,2013-11-02 06:35:00,
2013-11-02 03:00:00,60.8,58.0,29.71,West,270,0.0,0.0,90,0.00,,,0.00,WUHU216HW,2013-11-02 07:00:00,
2013-11-02 03:05:00,60.8,58.0,29.71,West,270,0.0,0.0,90,0.00,,,0.00,WUHU216HW,2013-11-02 07:05:00,
2013-11-02 03:30:00,60.5,57.6,29.71,West,270,0.0,0.0,90,0.00,,,0.00,WUHU216HW,2013-11-02 07:30:00,
2013-11-02 03:35:00,60.5,57.6,29.71,West,270,0.0,0.0,90,0.00,,,0.00,WUHU216HW,2013-11-02 07:35:00,
2013-11-02 04:00:00,60.1,57.2,29.72,South,180,0.0,0.0,90,0.00,,,0.00,WUHU216HW,2013-11-02 08:00:00,
2013-11-02 04:05:00,60.1,57.2,29.72,South,180,0.0,0.0,90,0.00,,,0.00,WUHU216HW,2013-11-02 08:05:00,
2013-11-02 04:30:00,60.1,57.2,29.73,ENE,68,0.0,0.0,90,0.00,,,0.00,WUHU216HW,2013-11-02 08:30:00,
2013-11-02 04:35:00,60.1,57.2,29.73,ENE,68,0.0,0.0,90,0.00,,,0.00,WUHU216HW,2013-11-02 08:35:00,
2013-11-02 05:00:00,59.4,56.5,29.73,NNW,338,0.0,0.0,90,0.00,,,0.00,WUHU216HW,2013-11-02 09:00:00,
2013-11-02 05:05:00,59.4,56.5,29.73,NNW,338,0.0,0.0,90,0.00,,,0.00,WUHU216HW,2013-11-02 09:05:00,
2013-11-02 05:30:00,59.2,56.3,29.74,NW,315,0.0,0.0,90,0.00,,,0.00,WUHU216HW,2013-11-02 09:30:00,
2013-11-02 05:35:00,59.2,56.3,29.74,NW,315,0.0,0.0,90,0.00,,,0.00,WUHU216HW,2013-11-02 09:35:00,
2013-11-02 06:00:00,59.0,56.2,29.74,NW,315,0.0,0.0,90,0.00,,,0.00,WUHU216HW,2013-11-02 10:00:00,
2013-11-02 06:05:00,59.0,56.2,29.74,NW,315,0.0,0.0,90,0.00,,,0.00,WUHU216HW,2013-11-02 10:05:00,
2013-11-02 06:30:00,58.7,55.8,29.75,NW,315,0.0,0.0,90,0.00,,,0.00,WUHU216HW,2013-11-02 10:30:00,
2013-11-02 06:35:00,58.7,55.8,29.75,NW,315,0.0,0.0,90,0.00,,,0.00,WUHU216HW,2013-11-02 10:35:00,
2013-11-02 07:00:00,58.3,55.4,29.75,NW,315,0.0,0.0,90,0.00,,,0.00,WUHU216HW,2013-11-02 11:00:00,
2013-11-02 07:05:00,58.3,55.4,29.75,NW,315,0.0,0.0,90,0.00,,,0.00,WUHU216HW,2013-11-02 11:05:00,
2013-11-02 07:30:00,58.0,54.7,29.76,NW,315,0.0,0.0,89,0.00,,,0.00,WUHU216HW,2013-11-02 11:30:00,
2013-11-02 07:35:00,58.0,54.7,29.76,NW,315,0.0,0.0,89,0.00,,,0.00,WUHU216HW,2013-11-02 11:35:00,
2013-11-02 08:00:00,57.6,54.4,29.77,NW,315,0.0,0.0,89,0.00,,,0.00,WUHU216HW,2013-11-02 12:00:00,
2013-11-02 08:05:00,57.6,54.4,29.77,NW,315,0.0,0.0,89,0.00,,,0.00,WUHU216HW,2013-11-02 12:05:00,
2013-11-02 08:30:00,57.4,54.2,29.78,WNW,293,0.0,0.0,89,0.00,,,0.00,WUHU216HW,2013-11-02 12:30:00,
2013-11-02 08:35:00,57.4,54.2,29.78,WNW,293,0.0,0.0,89,0.00,,,0.00,WUHU216HW,2013-11-02 12:35:00,
2013-11-02 09:00:00,57.2,54.0,29.79,WSW,248,0.0,0.0,89,0.00,,,0.00,WUHU216HW,2013-11-02 13:00:00,
2013-11-02 09:05:00,57.2,54.0,29.79,WSW,248,0.0,0.0,89,0.00,,,0.00,WUHU216HW,2013-11-02 13:05:00,
2013-11-02 09:30:00,57.1,53.8,29.79,NNW,338,0.0,0.0,89,0.00,,,0.00,WUHU216HW,2013-11-02 13:30:00,
2013-11-02 09:35:00,57.1,53.8,29.79,NNW,338,0.0,0.0,89,0.00,,,0.00,WUHU216HW,2013-11-02 13:35:00,
2013-11-02 10:00:00,57.6,53.7,29.81,WNW,293,0.0,0.0,87,0.00,,,0.00,WUHU216HW,2013-11-02 14:00:00,
2013-11-02 10:05:00,57.6,53.7,29.81,WNW,293,0.0,0.0,87,0.00,,,0.00,WUHU216HW,2013-11-02 14:05:00,
2013-11-02 10:30:00,59.0,54.5,29.80,West,270,0.9,0.9,85,0.00,,,0.00,WUHU216HW,2013-11-02 14:30:00,
2013-11-02 10:35:00,59.0,54.5,29.80,West,270,0.9,0.9,85,0.00,,,0.00,WUHU216HW,2013-11-02 14:35:00,
2013-11-02 11:00:00,60.3,55.2,29.81,NW,315,0.0,0.0,83,0.00,,,0.00,WUHU216HW,2013-11-02 15:00:00,
2013-11-02 11:05:00,60.3,55.2,29.81,NW,315,0.0,0.0,83,0.00,,,0.00,WUHU216HW,2013-11-02 15:05:00,
2013-11-02 11:30:00,60.3,53.8,29.79,North,0,0.4,0.4,79,0.00,,,0.00,WUHU216HW,2013-11-02 15:30:00,
2013-11-02 11:35:00,60.3,53.8,29.79,North,0,0.4,0.4,79,0.00,,,0.00,WUHU216HW,2013-11-02 15:35:00,
2013-11-02 12:00:00,62.8,55.1,29.81,WSW,248,0.2,0.2,76,0.00,,,0.00,WUHU216HW,2013-11-02 16:00:00,
2013-11-02 12:05:00,62.8,55.1,29.81,WSW,248,0.2,0.2,76,0.00,,,0.00,WUHU216HW,2013-11-02 16:05:00,
2013-11-02 12:30:00,64.6,55.5,29.79,WSW,248,0.0,0.0,72,0.00,,,0.00,WUHU216HW,2013-11-02 16:30:00,
2013-11-02 12:35:00,64.6,55.5,29.79,WSW,248,0.0,0.0,72,0.00,,,0.00,WUHU216HW,2013-11-02 16:35:00,
2013-11-02 13:00:00,66.1,54.7,29.78,WSW,248,0.9,0.9,67,0.00,,,0.00,WUHU216HW,2013-11-02 17:00:00,
2013-11-02 13:05:00,66.1,54.7,29.78,WSW,248,0.9,0.9,67,0.00,,,0.00,WUHU216HW,2013-11-02 17:05:00,
2013-11-02 13:30:00,66.6,53.7,29.76,NE,45,0.9,0.9,63,0.00,,,0.00,WUHU216HW,2013-11-02 17:30:00,
2013-11-02 13:35:00,66.6,53.7,29.76,NE,45,0.9,0.9,63,0.00,,,0.00,WUHU216HW,2013-11-02 17:35:00,
2013-11-02 14:00:00,67.3,53.5,29.76,WSW,248,2.0,2.0,61,0.00,,,0.00,WUHU216HW,2013-11-02 18:00:00,
2013-11-02 14:05:00,67.3,53.5,29.76,WSW,248,2.0,2.0,61,0.00,,,0.00,WUHU216HW,2013-11-02 18:05:00,
2013-11-02 14:30:00,67.7,50.4,29.76,WSW,248,0.9,0.9,54,0.00,,,0.00,WUHU216HW,2013-11-02 18:30:00,
2013-11-02 14:35:00,67.7,50.4,29.76,WSW,248,0.9,0.9,54,0.00,,,0.00,WUHU216HW,2013-11-02 18:35:00,
2013-11-02 15:00:00,67.1,50.4,29.76,WSW,248,1.8,1.8,55,0.00,,,0.00,WUHU216HW,2013-11-02 19:00:00,
2013-11-02 15:05:00,67.1,50.4,29.76,WSW,248,1.8,1.8,55,0.00,,,0.00,WUHU216HW,2013-11-02 19:05:00,
2013-11-02 15:30:00,66.6,50.4,29.76,NNW,338,1.8,1.8,56,0.00,,,0.00,WUHU216HW,2013-11-02 19:30:00,
2013-11-02 15:35:00,66.6,50.4,29.76,NNW,338,1.8,1.8,56,0.00,,,0.00,WUHU216HW,2013-11-02 19:35:00,
2013-11-02 16:00:00,66.2,50.0,29.76,West,270,0.2,0.2,56,0.00,,,0.00,WUHU216HW,2013-11-02 20:00:00,
2013-11-02 16:05:00,66.2,50.0,29.76,West,270,0.2,0.2,56,0.00,,,0.00,WUHU216HW,2013-11-02 20:05:00,
2013-11-02 16:30:00,66.2,49.6,29.76,West,270,0.0,0.0,55,0.00,,,0.00,WUHU216HW,2013-11-02 20:30:00,
2013-11-02 16:35:00,66.2,49.6,29.76,West,270,0.0,0.0,55,0.00,,,0.00,WUHU216HW,2013-11-02 20:35:00,
2013-11-02 17:00:00,66.1,49.9,29.76,SW,225,0.0,0.0,56,0.00,,,0.00,WUHU216HW,2013-11-02 21:00:00,
2013-11-02 17:05:00,66.1,49.9,29.76,SW,225,0.0,0.0,56,0.00,,,0.00,WUHU216HW,2013-11-02 21:05:00,
2013-11-02 17:30:00,65.3,50.1,29.76,NW,315,0.0,0.0,58,0.00,,,0.00,WUHU216HW,2013-11-02 21:30:00,
2013-11-02 17:35:00,65.3,50.1,29.76,NW,315,0.0,0.0,58,0.00,,,0.00,WUHU216HW,2013-11-02 21:35:00,
2013-11-02 18:00:00,64.1,49.9,29.78,NW,315,0.0,0.0,60,0.00,,,0.00,WUHU216HW,2013-11-02 22:00:00,
2013-11-02 18:05:00,64.1,49.9,29.78,NW,315,0.0,0.0,60,0.00,,,0.00,WUHU216HW,2013-11-02 22:05:00,
2013-11-02 18:30:00,61.4,50.4,29.81,SSE,158,0.0,0.0,67,0.00,,,0.00,WUHU216HW,2013-11-02 22:30:00,
2013-11-02 18:35:00,61.4,50.4,29.81,SSE,158,0.0,0.0,67,0.00,,,0.00,WUHU216HW,2013-11-02 22:35:00,
2013-11-02 19:00:00,59.6,50.6,29.82,SSW,203,0.0,0.0,72,0.00,,,0.00,WUHU216HW,2013-11-02 23:00:00,
2013-11-02 19:05:00,59.6,50.6,29.82,SSW,203,0.0,0.0,72,0.00,,,0.00,WUHU216HW,2013-11-02 23:05:00,
2013-11-02 19:30:00,58.7,50.0,29.82,SW,225,0.0,0.0,73,0.00,,,0.00,WUHU216HW,2013-11-02 23:30:00,
2013-11-02 19:35:00,58.7,50.0,29.82,SW,225,0.0,0.0,73,0.00,,,0.00,WUHU216HW,2013-11-02 23:35:00,
2013-11-02 20:00:00,57.6,50.4,29.84,NW,315,0.0,0.0,77,0.00,,,0.00,WUHU216HW,2013-11-03 00:00:00,
2013-11-02 20:05:00,57.6,50.4,29.84,NW,315,0.0,0.0,77,0.00,,,0.00,WUHU216HW,2013-11-03 00:05:00,
2013-11-02 20:30:00,57.2,48.6,29.86,West,270,0.0,0.0,73,0.00,,,0.00,WUHU216HW,2013-11-03 00:30:00,
2013-11-02 20:35:00,57.2,48.6,29.86,West,270,0.0,0.0,73,0.00,,,0.00,WUHU216HW,2013-11-03 00:35:00,
2013-11-02 21:00:00,57.4,48.1,29.87,West,270,0.4,0.4,71,0.00,,,0.00,WUHU216HW,2013-11-03 01:00:00,
2013-11-02 21:05:00,57.4,48.1,29.87,West,270,0.4,0.4,71,0.00,,,0.00,WUHU216HW,2013-11-03 01:05:00,
2013-11-02 21:30:00,57.2,47.9,29.89,NNW,338,0.2,0.2,71,0.00,,,0.00,WUHU216HW,2013-11-03 01:30:00,
2013-11-02 21:35:00,57.2,47.9,29.89,NNW,338,0.2,0.2,71,0.00,,,0.00,WUHU216HW,2013-11-03 01:35:00,
2013-11-02 22:00:00,56.9,47.2,29.90,NNW,338,0.4,0.4,70,0.00,,,0.00,WUHU216HW,2013-11-03 02:00:00,
2013-11-02 22:05:00,56.9,47.2,29.90,NNW,338,0.4,0.4,70,0.00,,,0.00,WUHU216HW,2013-11-03 02:05:00,
2013-11-02 22:30:00,56.2,46.2,29.92,NW,315,0.0,0.0,69,0.00,,,0.00,WUHU216HW,2013-11-03 02:30:00,
2013-11-02 22:35:00,56.2,46.2,29.92,NW,315,0.0,0.0,69,0.00,,,0.00,WUHU216HW,2013-11-03 02:35:00,
2013-11-02 23:00:00,55.4,45.1,29.93,NW,315,0.2,0.2,68,0.00,,,0.00,WUHU216HW,2013-11-03 03:00:00,
2013-11-02 23:05:00,55.4,45.1,29.93,NW,315,0.2,0.2,68,0.00,,,0.00,WUHU216HW,2013-11-03 03:05:00,
2013-11-02 23:30:00,54.4,44.5,29.95,NNW,338,0.0,0.0,69,0.00,,,0.00,WUHU216HW,2013-11-03 03:30:00,
2013-11-02 23:35:00,54.4,44.5,29.95,NNW,338,0.0,0.0,69,0.00,,,0.00,WUHU216HW,2013-11-03 03:35:00,